This is the latest recevied weather packets stored in our database for station/object UR7D-12. If no packets are shown the sender has not sent any weather packets the latest 10 day(s).
| Time | Temp. | Humidity | Pressure | Rain* | Wind** | Luminosity | Snow |
|---|---|---|---|---|---|---|---|
| 1777780925 | 6.11° C | 74% | 996.6 hPa | 0 mm | - | - | - |
| 1777780624 | 6.11° C | 74% | 996.6 hPa | 0 mm | - | - | - |
| 1777780024 | 5.56° C | 74% | 996.5 hPa | 0 mm | - | - | - |
| 1777779723 | 5.56° C | 74% | 996.5 hPa | 0 mm | - | - | - |
| 1777779426 | 5.56° C | 75% | 996.5 hPa | 0 mm | - | - | - |
| 1777778823 | 5° C | 75% | 996.4 hPa | 0 mm | - | - | - |
| 1777778225 | 5.56° C | 75% | 996.3 hPa | 0 mm | - | - | - |
| 1777777922 | 5.56° C | 74% | 996.2 hPa | 0 mm | - | - | - |
| 1777777623 | 5.56° C | 73% | 996.2 hPa | 0 mm | - | - | - |
| 1777777326 | 6.11° C | 72% | 996 hPa | 0 mm | - | - | - |
| 1777777021 | 6.11° C | 70% | 995.9 hPa | 0 mm | - | - | - |
| 1777776721 | 6.67° C | 70% | 995.8 hPa | 0 mm | - | - | - |
| 1777776420 | 6.67° C | 68% | 995.7 hPa | 0 mm | - | - | - |
| 1777776121 | 6.67° C | 68% | 995.6 hPa | 0 mm | - | - | - |
| 1777775820 | 6.11° C | 70% | 995.7 hPa | 0 mm | - | - | - |
| 1777775222 | 6.67° C | 70% | 995.6 hPa | 0 mm | - | - | - |
| 1777774922 | 6.11° C | 71% | 995.6 hPa | 0 mm | - | - | - |
| 1777774618 | 6.67° C | 70% | 995.8 hPa | 0 mm | - | - | - |
| 1777774019 | 6.67° C | 69% | 995.7 hPa | 0 mm | - | - | - |
| 1777773719 | 6.67° C | 68% | 995.6 hPa | 0 mm | - | - | - |
| 1777773418 | 7.22° C | 68% | 995.6 hPa | 0 mm | - | - | - |
| 1777772818 | 7.22° C | 67% | 995.7 hPa | 0 mm | - | - | - |
| 1777771916 | 6.67° C | 68% | 995.9 hPa | 0 mm | - | - | - |
| 1777769514 | 7.22° C | 67% | 995.9 hPa | 0 mm | - | - | - |
| 1777768313 | 7.22° C | 66% | 995.9 hPa | 0 mm | - | - | - |
* Rain latest hour (hover to see other rain measurements)
** Current wind speed in m/s (hover to see current wind gust speed)